PREDF SBTG-SBVT

Flight info

Callsign PREDF
Flight time N/A
Altitude FL110
Route ALINE RPR KIGOK KIGO1C
Aircraft C208/M-VGDW/C

Departure

Time 2026-05-05 20:31
Airport Plínio Alarcom Airport (SBTG)

Arrival

Time N/A
Airport Eurico de Aguiar Salles International Airport (SBVT)
Time Latitude Longitude Altitude Speed Heading
2026-05-05 20:29 -20.75139 -51.68028 1056 ft 0 kts 53°
2026-05-05 20:30 -20.75081 -51.67938 1056 ft 44 kts 52°
2026-05-05 20:30 -20.74783 -51.67493 1056 ft 95 kts 53°
2026-05-05 20:30 -20.74432 -51.67004 1303 ft 90 kts 52°
2026-05-05 20:31 -20.74224 -51.66352 1462 ft 96 kts 86°
2026-05-05 20:31 -20.74455 -51.65675 1661 ft 101 kts 124°
2026-05-05 20:31 -20.75049 -51.65240 1825 ft 108 kts 149°
2026-05-05 20:31 -20.75723 -51.64879 1998 ft 109 kts 149°
2026-05-05 20:32 -20.75869 -51.64800 2035 ft 109 kts 149°
2026-05-05 20:32 -20.76189 -51.64629 1892 ft 113 kts 149°
2026-05-05 20:32 -20.76911 -51.64233 1704 ft 106 kts 150°
2026-05-05 20:33 -20.77481 -51.63940 1715 ft 80 kts 153°
2026-05-05 20:33 -20.77846 -51.63528 1343 ft 92 kts 93°
2026-05-05 20:33 -20.77702 -51.62963 1299 ft 67 kts 71°
2026-05-05 20:33 -20.77579 -51.62423 1006 ft 75 kts 74°
2026-05-05 20:34 -20.77380 -51.61567 1023 ft 147 kts 75°
2026-05-05 20:34 -20.77203 -51.60760 1466 ft 72 kts 74°
2026-05-05 20:34 -20.77123 -51.60364 1209 ft 82 kts 75°
2026-05-05 20:34 -20.76999 -51.59766 998 ft 168 kts 75°
2026-05-05 20:35 -20.76763 -51.58706 1105 ft 126 kts 76°
2026-05-05 20:35 -20.76593 -51.57916 1137 ft 96 kts 76°